When you browse on this site, cookies collect data to enhance your experience and personalize the content and advertising you see.
Visit our Privacy Policy to learn more. By continuing to use the site, you agree to this use of cookies and data.
  • In Lithuania
  • List of Countries
  • For 7 days
  • Water Temperature
  • Weather Map
  • Weather Widgets
  • user-avatar
    Login

    Hourly Weather Saskatoon

    Today, 20 August, Tuesday

    Time Temperature Precipitation Wind Pressure Humidity
    00:00 +10°C° 0 mm 2 mps 718 mmHg 82%
    01:00 +10°C° 0 mm 2 mps 718 mmHg 85%
    02:00 +9°C° 0 mm 2 mps 718 mmHg 89%
    03:00 +9°C° 0 mm 2 mps 719 mmHg 89%
    04:00 +8°C° 0 mm 2 mps 719 mmHg 90%
    05:00 +8°C° 0 mm 2 mps 720 mmHg 90%
    06:00 +10°C° 0 mm 2 mps 720 mmHg 82%
    07:00 +13°C° 0 mm 2 mps 720 mmHg 73%
    08:00 +15°C° 0 mm 2 mps 721 mmHg 65%
    09:00 +17°C° 0 mm 2 mps 721 mmHg 59%
    10:00 +19°C° 0 mm 2 mps 721 mmHg 53%
    11:00 +20°C° 0 mm 2 mps 721 mmHg 47%
    12:00 +21°C° 0 mm 3 mps 721 mmHg 43%
    13:00 +22°C° 0 mm 3 mps 721 mmHg 39%
    14:00 +24°C° 0 mm 3 mps 720 mmHg 34%
    15:00 +24°C° 0 mm 3 mps 721 mmHg 35%
    16:00 +24°C° 0 mm 3 mps 721 mmHg 35%
    17:00 +24°C° 0 mm 2 mps 721 mmHg 36%
    18:00 +21°C° 0 mm 2 mps 720 mmHg 42%
    19:00 +19°C° 0 mm 2 mps 720 mmHg 48%
    20:00 +17°C° 0 mm 2 mps 720 mmHg 54%
    21:00 +16°C° 0 mm 2 mps 720 mmHg 56%
    22:00 +15°C° 0 mm 2 mps 720 mmHg 58%
    23:00 +14°C° 0 mm 2 mps 720 mmHg 60%

    Tomorrow, 21 August, Wednesday

    Time Temperature Precipitation Wind Pressure Humidity
    00:00 +14°C° 0 mm 2 mps 720 mmHg 62%
    01:00 +12°C° 0 mm 3 mps 720 mmHg 64%
    02:00 +12°C° 0 mm 3 mps 720 mmHg 66%
    03:00 +11°C° 0 mm 3 mps 720 mmHg 68%
    04:00 +11°C° 0 mm 3 mps 720 mmHg 69%
    05:00 +11°C° 0 mm 3 mps 720 mmHg 71%
    06:00 +13°C° 0 mm 4 mps 720 mmHg 65%
    07:00 +14°C° 0 mm 5 mps 720 mmHg 60%
    08:00 +16°C° 0 mm 5 mps 720 mmHg 54%
    09:00 +19°C° 0 mm 6 mps 719 mmHg 49%
    10:00 +21°C° 0 mm 6 mps 719 mmHg 45%
    11:00 +23°C° 0 mm 6 mps 719 mmHg 40%
    12:00 +24°C° 0 mm 7 mps 719 mmHg 39%
    13:00 +26°C° 0 mm 7 mps 718 mmHg 38%
    14:00 +26°C° 0 mm 7 mps 718 mmHg 36%
    15:00 +26°C° 0 mm 7 mps 717 mmHg 38%
    16:00 +26°C° 0 mm 7 mps 717 mmHg 39%
    17:00 +24°C° 0 mm 7 mps 716 mmHg 40%
    18:00 +23°C° 0 mm 7 mps 716 mmHg 43%
    19:00 +21°C° 0 mm 7 mps 715 mmHg 46%
    20:00 +20°C° 0 mm 7 mps 715 mmHg 50%
    21:00 +18°C° 0 mm 7 mps 715 mmHg 50%
    22:00 +18°C° 0 mm 8 mps 714 mmHg 51%
    23:00 +18°C° 0 mm 8 mps 714 mmHg 51%

    Day after tomorrow, 22 August, Thursday

    Time Temperature Precipitation Wind Pressure Humidity
    00:00 +18°C° 0 mm 8 mps 713 mmHg 51%
    01:00 +18°C° 0 mm 9 mps 713 mmHg 50%
    02:00 +18°C° 0 mm 9 mps 712 mmHg 50%
    03:00 +17°C° 0 mm 8 mps 712 mmHg 50%
    04:00 +17°C° 0 mm 8 mps 712 mmHg 51%
    05:00 +17°C° 0 mm 8 mps 712 mmHg 51%
    06:00 +18°C° 0.3 mm 8 mps 712 mmHg 53%
    07:00 +19°C° 0.3 mm 9 mps 711 mmHg 54%
    08:00 +21°C° 0.3 mm 9 mps 711 mmHg 56%
    09:00 +23°C° 0.2 mm 8 mps 712 mmHg 54%
    10:00 +24°C° 0.2 mm 8 mps 712 mmHg 52%
    11:00 +26°C° 0.2 mm 7 mps 712 mmHg 50%
    12:00 +26°C° 0.1 mm 6 mps 712 mmHg 52%
    13:00 +26°C° 0.1 mm 6 mps 712 mmHg 54%
    14:00 +25°C° 0.1 mm 5 mps 712 mmHg 56%
    15:00 +23°C° 0.9 mm 5 mps 712 mmHg 63%
    16:00 +21°C° 0.9 mm 4 mps 712 mmHg 70%
    17:00 +19°C° 0.9 mm 4 mps 712 mmHg 76%
    18:00 +18°C° 0.2 mm 3 mps 712 mmHg 78%
    19:00 +18°C° 0.2 mm 3 mps 713 mmHg 81%
    20:00 +17°C° 0.2 mm 2 mps 713 mmHg 83%
    21:00 +16°C° 0 mm 2 mps 714 mmHg 85%
    22:00 +16°C° 0 mm 3 mps 714 mmHg 87%
    23:00 +14°C° 0 mm 3 mps 714 mmHg 88%

    23 August, Friday

    Time Temperature Precipitation Wind Pressure Humidity
    00:00 +13°C° 0 mm 3 mps 714 mmHg 88%
    01:00 +12°C° 0 mm 3 mps 714 mmHg 87%
    02:00 +12°C° 0 mm 3 mps 715 mmHg 86%
    03:00 +12°C° 0 mm 2 mps 715 mmHg 86%
    04:00 +12°C° 0 mm 2 mps 715 mmHg 86%
    05:00 +10°C° 0 mm 2 mps 715 mmHg 86%
    06:00 +13°C° 0 mm 2 mps 715 mmHg 78%
    07:00 +14°C° 0 mm 2 mps 715 mmHg 70%
    08:00 +16°C° 0 mm 2 mps 715 mmHg 62%
    09:00 +18°C° 0 mm 2 mps 715 mmHg 55%
    10:00 +19°C° 0 mm 3 mps 715 mmHg 49%
    11:00 +21°C° 0 mm 3 mps 715 mmHg 42%
    12:00 +22°C° 0 mm 3 mps 715 mmHg 40%
    13:00 +24°C° 0 mm 3 mps 714 mmHg 38%
    14:00 +23°C° 0 mm 4 mps 714 mmHg 36%
    15:00 +23°C° 0 mm 4 mps 713 mmHg 39%
    16:00 +23°C° 0 mm 4 mps 713 mmHg 41%
    17:00 +22°C° 0 mm 4 mps 712 mmHg 43%
    18:00 +21°C° 0 mm 4 mps 712 mmHg 50%
    19:00 +19°C° 0 mm 4 mps 711 mmHg 56%
    20:00 +17°C° 0 mm 3 mps 711 mmHg 63%
    21:00 +17°C° 0 mm 4 mps 710 mmHg 63%
    22:00 +17°C° 0 mm 5 mps 709 mmHg 64%
    23:00 +17°C° 0 mm 6 mps 709 mmHg 65%

    24 August, Saturday

    Time Temperature Precipitation Wind Pressure Humidity
    00:00 +17°C° 0.3 mm 5 mps 708 mmHg 72%
    01:00 +17°C° 0.3 mm 5 mps 707 mmHg 80%
    02:00 +18°C° 0.3 mm 4 mps 707 mmHg 88%
    03:00 +18°C° 1 mm 4 mps 706 mmHg 89%
    04:00 +18°C° 1 mm 3 mps 706 mmHg 91%
    05:00 +18°C° 1 mm 3 mps 705 mmHg 93%
    06:00 +19°C° 0.2 mm 3 mps 705 mmHg 87%
    07:00 +20°C° 0.2 mm 3 mps 705 mmHg 81%
    08:00 +22°C° 0.2 mm 4 mps 705 mmHg 75%
    09:00 +21°C° 0.1 mm 5 mps 705 mmHg 74%
    10:00 +21°C° 0.1 mm 6 mps 705 mmHg 73%
    11:00 +21°C° 0.1 mm 6 mps 705 mmHg 72%
    12:00 +22°C° 0 mm 6 mps 706 mmHg 64%
    13:00 +23°C° 0 mm 7 mps 706 mmHg 57%
    14:00 +24°C° 0 mm 7 mps 707 mmHg 50%
    15:00 +23°C° 0 mm 6 mps 707 mmHg 49%
    16:00 +23°C° 0 mm 6 mps 707 mmHg 48%
    17:00 +23°C° 0 mm 6 mps 708 mmHg 47%
    18:00 +21°C° 0 mm 5 mps 708 mmHg 54%
    19:00 +19°C° 0 mm 4 mps 708 mmHg 60%
    20:00 +17°C° 0 mm 3 mps 708 mmHg 66%
    21:00 +17°C° 0 mm 3 mps 708 mmHg 69%
    22:00 +16°C° 0 mm 2 mps 708 mmHg 72%
    23:00 +15°C° 0 mm 2 mps 708 mmHg 75%

    25 August, Sunday

    Time Temperature Precipitation Wind Pressure Humidity
    00:00 +15°C° 0 mm 2 mps 708 mmHg 77%
    01:00 +14°C° 0 mm 2 mps 708 mmHg 79%
    02:00 +14°C° 0 mm 2 mps 708 mmHg 81%
    03:00 +14°C° 0 mm 2 mps 708 mmHg 82%
    04:00 +13°C° 0 mm 3 mps 709 mmHg 84%
    05:00 +13°C° 0 mm 3 mps 709 mmHg 86%
    06:00 +14°C° 0 mm 3 mps 709 mmHg 80%
    07:00 +16°C° 0 mm 3 mps 710 mmHg 74%
    08:00 +18°C° 0 mm 3 mps 710 mmHg 68%
    09:00 +19°C° 0 mm 4 mps 710 mmHg 61%
    10:00 +21°C° 0 mm 4 mps 710 mmHg 54%
    11:00 +23°C° 0 mm 4 mps 710 mmHg 47%
    12:00 +23°C° 0 mm 4 mps 710 mmHg 44%
    13:00 +25°C° 0 mm 5 mps 710 mmHg 42%
    14:00 +25°C° 0 mm 5 mps 710 mmHg 39%
    15:00 +25°C° 0 mm 5 mps 710 mmHg 40%
    16:00 +25°C° 0 mm 4 mps 710 mmHg 41%
    17:00 +23°C° 0 mm 4 mps 710 mmHg 42%
    18:00 +21°C° 0 mm 4 mps 710 mmHg 48%
    19:00 +20°C° 0 mm 3 mps 710 mmHg 54%
    20:00 +18°C° 0 mm 3 mps 710 mmHg 60%
    21:00 +17°C° 0 mm 3 mps 710 mmHg 62%
    22:00 +16°C° 0 mm 3 mps 710 mmHg 65%
    23:00 +15°C° 0 mm 2 mps 710 mmHg 68%
    Show more